Tracking 29493 objects as of 8-Sep-2024
HD Live streaming from Space Station
objects crossing your sky now

OBJECT F

Track OBJECT F now!
10-day predictions


NORAD ID: 44884
Int'l Code: 2019-093F
Perigee: 594.7 km
Apogee: 611.5 km
Inclination: 97.8 °
Period: 96.6 minutes
Semi major axis: 6974 km
RCS: Unknown
Launch date: December 20, 2019
Source: (TBD)
Launch site: Taiyaun Space Center, China (TSC)

Note: This is a ROCKET BODY
Your satellite tracking list
Your tracking list is empty




NASA's NSSDC Master Catalog

Two Line Element Set (TLE):
1 44884U 19093F   24252.46878870  .00014542  00000-0  14857-2 0  9996
2 44884  97.8319 332.8447 0012051  44.6591 315.5596 14.90635952255703
Source of the keplerian elements: AFSPC